Location: ????????
(60.5616°N, 46.8254°E)
Time: 23:15:16
(UTC+00:00)

SPOT 1/Viking Rocket - Pass Details

Date: 18 February 2020
Orbit: 778 x 793 km, 98.5° (Epoch: 05 April)

Event Time Altitude Azimuth Distance (km) Brightness Sun altitude
Exits shadow 17:54:17 60° 336° (NNW) 895 3.9 -29.8°
Drops below altitude 10° 17:58:30 10° 342° (NNW) 2,349 6.6 -30.2°
Sets 18:00:50 0° 342° (NNW) 3,283 7.5 -30.5°
